When you browse on this site, cookies collect data to enhance your experience and personalize the content and advertising you see.
Visit our Privacy Policy to learn more. By continuing to use the site, you agree to this use of cookies and data.
  • en France
  • Liste des pays
  • À 7 jours
  • Température de l'eau
  • Carte satellitaire
  • Carte météo
  • Widgets météo
  • user-avatar
    Se connecter

    Météo par heure à Elbasan

    Ce jour, 22 Janvier, Mardi

    Heure Température Précipitation Vent Pression Humidité
    00:00 +5°C° 0 mm 3 m/s 733 mmHg 80%
    01:00 +5°C° 0 mm 3 m/s 733 mmHg 80%
    02:00 +5°C° 0 mm 3 m/s 733 mmHg 80%
    03:00 +5°C° 0 mm 3 m/s 732 mmHg 81%
    04:00 +5°C° 0 mm 3 m/s 732 mmHg 81%
    05:00 +5°C° 0.4 mm 3 m/s 731 mmHg 82%
    06:00 +5°C° 0.4 mm 3 m/s 731 mmHg 83%
    07:00 +5°C° 0.4 mm 3 m/s 731 mmHg 83%
    08:00 +7°C° 0.4 mm 3 m/s 731 mmHg 81%
    09:00 +8°C° 0.4 mm 3 m/s 731 mmHg 79%
    10:00 +8°C° 0.4 mm 3 m/s 730 mmHg 78%
    11:00 +9°C° 0.2 mm 3 m/s 730 mmHg 77%
    12:00 +10°C° 0.2 mm 3 m/s 729 mmHg 76%
    13:00 +10°C° 0.2 mm 3 m/s 728 mmHg 76%
    14:00 +10°C° 0.5 mm 3 m/s 728 mmHg 78%
    15:00 +9°C° 0.5 mm 3 m/s 727 mmHg 80%
    16:00 +8°C° 0.5 mm 2 m/s 727 mmHg 82%
    17:00 +8°C° 1.5 mm 2 m/s 727 mmHg 83%
    18:00 +8°C° 1.5 mm 2 m/s 726 mmHg 85%
    19:00 +7°C° 1.5 mm 2 m/s 726 mmHg 87%
    20:00 +7°C° 0.6 mm 2 m/s 726 mmHg 88%
    21:00 +7°C° 0.6 mm 2 m/s 726 mmHg 89%
    22:00 +7°C° 0.6 mm 2 m/s 727 mmHg 90%
    23:00 +7°C° 0.3 mm 2 m/s 727 mmHg 92%

    Demain, 23 Janvier, Mercredi

    Heure Température Précipitation Vent Pression Humidité
    00:00 +6°C° 0.3 mm 2 m/s 727 mmHg 93%
    01:00 +6°C° 0.3 mm 2 m/s 727 mmHg 95%
    02:00 +6°C° 0.3 mm 2 m/s 726 mmHg 94%
    03:00 +5°C° 0.3 mm 2 m/s 726 mmHg 93%
    04:00 +5°C° 0.3 mm 2 m/s 726 mmHg 93%
    05:00 +5°C° 0.1 mm 2 m/s 726 mmHg 91%
    06:00 +5°C° 0.1 mm 2 m/s 726 mmHg 89%
    07:00 +4°C° 0.1 mm 2 m/s 726 mmHg 87%
    08:00 +6°C° 0.1 mm 2 m/s 726 mmHg 82%
    09:00 +7°C° 0.1 mm 2 m/s 726 mmHg 78%
    10:00 +8°C° 0.1 mm 2 m/s 726 mmHg 74%
    11:00 +9°C° 0.2 mm 2 m/s 725 mmHg 71%
    12:00 +9°C° 0.2 mm 2 m/s 725 mmHg 68%
    13:00 +10°C° 0.2 mm 2 m/s 724 mmHg 65%
    14:00 +9°C° 0.1 mm 2 m/s 724 mmHg 69%
    15:00 +10°C° 0.1 mm 1 m/s 723 mmHg 72%
    16:00 +8°C° 0.1 mm 0 m/s 723 mmHg 76%
    17:00 +9°C° 0 mm 1 m/s 723 mmHg 78%
    18:00 +8°C° 0 mm 1 m/s 723 mmHg 79%
    19:00 +7°C° 0 mm 1 m/s 722 mmHg 81%
    20:00 +7°C° 0 mm 1 m/s 722 mmHg 81%
    21:00 +6°C° 0 mm 1 m/s 722 mmHg 81%
    22:00 +6°C° 0 mm 1 m/s 722 mmHg 81%
    23:00 +6°C° 0 mm 1 m/s 722 mmHg 81%

    Après-demain, 24 Janvier, Jeudi

    Heure Température Précipitation Vent Pression Humidité
    00:00 +6°C° 0 mm 1 m/s 721 mmHg 81%
    01:00 +6°C° 0 mm 1 m/s 721 mmHg 81%
    02:00 +6°C° 0.2 mm 1 m/s 720 mmHg 82%
    03:00 +5°C° 0.2 mm 2 m/s 719 mmHg 82%
    04:00 +5°C° 0.2 mm 2 m/s 719 mmHg 82%
    05:00 +5°C° 0.1 mm 2 m/s 719 mmHg 83%
    06:00 +5°C° 0.1 mm 2 m/s 719 mmHg 83%
    07:00 +6°C° 0.1 mm 1 m/s 719 mmHg 83%
    08:00 +7°C° 0.2 mm 1 m/s 719 mmHg 81%
    09:00 +8°C° 0.2 mm 1 m/s 719 mmHg 79%
    10:00 +9°C° 0.2 mm 1 m/s 719 mmHg 77%
    11:00 +8°C° 1.3 mm 1 m/s 719 mmHg 81%
    12:00 +8°C° 1.3 mm 1 m/s 719 mmHg 85%
    13:00 +6°C° 1.3 mm 0 m/s 719 mmHg 89%
    14:00 +7°C° 0.5 mm 0 m/s 719 mmHg 89%
    15:00 +8°C° 0.5 mm 1 m/s 719 mmHg 88%
    16:00 +8°C° 0.5 mm 1 m/s 719 mmHg 87%
    17:00 +7°C° 0 mm 1 m/s 719 mmHg 87%
    18:00 +6°C° 0 mm 2 m/s 720 mmHg 86%
    19:00 +5°C° 0 mm 2 m/s 720 mmHg 85%
    20:00 +5°C° 0 mm 2 m/s 720 mmHg 84%
    21:00 +4°C° 0 mm 3 m/s 720 mmHg 83%
    22:00 +3°C° 0 mm 3 m/s 720 mmHg 82%
    23:00 +4°C° 0.1 mm 4 m/s 720 mmHg 81%

    25 Janvier, Vendredi

    Heure Température Précipitation Vent Pression Humidité
    00:00 +4°C° 0.1 mm 4 m/s 720 mmHg 79%
    01:00 +5°C° 0.1 mm 4 m/s 720 mmHg 78%
    02:00 +4°C° 0 mm 4 m/s 720 mmHg 79%
    03:00 +4°C° 0 mm 4 m/s 720 mmHg 80%
    04:00 +3°C° 0 mm 4 m/s 719 mmHg 81%
    05:00 +4°C° 0 mm 4 m/s 719 mmHg 80%
    06:00 +4°C° 0 mm 4 m/s 719 mmHg 78%
    07:00 +4°C° 0 mm 4 m/s 719 mmHg 77%
    08:00 +4°C° 0.1 mm 4 m/s 719 mmHg 76%
    09:00 +5°C° 0.1 mm 4 m/s 719 mmHg 75%
    10:00 +6°C° 0.1 mm 4 m/s 719 mmHg 74%
    11:00 +7°C° 0.1 mm 3 m/s 719 mmHg 74%
    12:00 +8°C° 0.1 mm 3 m/s 719 mmHg 74%
    13:00 +8°C° 0.1 mm 2 m/s 718 mmHg 73%
    14:00 +8°C° 0.3 mm 2 m/s 719 mmHg 76%
    15:00 +7°C° 0.3 mm 2 m/s 719 mmHg 78%
    16:00 +7°C° 0.3 mm 2 m/s 719 mmHg 81%
    17:00 +6°C° 0.7 mm 2 m/s 719 mmHg 82%
    18:00 +6°C° 0.7 mm 2 m/s 720 mmHg 84%
    19:00 +5°C° 0.7 mm 2 m/s 720 mmHg 85%
    20:00 +5°C° 0.2 mm 2 m/s 720 mmHg 85%
    21:00 +5°C° 0.2 mm 2 m/s 721 mmHg 84%
    22:00 +4°C° 0.2 mm 2 m/s 721 mmHg 83%
    23:00 +3°C° 0 mm 3 m/s 721 mmHg 82%

    26 Janvier, Samedi

    Heure Température Précipitation Vent Pression Humidité
    00:00 +3°C° 0 mm 3 m/s 721 mmHg 82%
    01:00 +2°C° 0 mm 3 m/s 721 mmHg 81%
    02:00 +2°C° 0 mm 3 m/s 721 mmHg 81%
    03:00 +1°C° 0 mm 3 m/s 721 mmHg 80%
    04:00 0°C° 0 mm 3 m/s 721 mmHg 80%
    05:00 0°C° 0 mm 3 m/s 722 mmHg 79%
    06:00 0°C° 0 mm 3 m/s 722 mmHg 79%
    07:00 -1°C° 0 mm 3 m/s 722 mmHg 78%
    08:00 +1°C° 0 mm 3 m/s 723 mmHg 75%
    09:00 +3°C° 0 mm 3 m/s 723 mmHg 72%
    10:00 +5°C° 0 mm 2 m/s 724 mmHg 69%
    11:00 +6°C° 0 mm 2 m/s 724 mmHg 68%
    12:00 +7°C° 0 mm 2 m/s 724 mmHg 67%
    13:00 +8°C° 0 mm 2 m/s 724 mmHg 66%
    14:00 +8°C° 0 mm 1 m/s 724 mmHg 68%
    15:00 +8°C° 0 mm 1 m/s 724 mmHg 69%
    16:00 +8°C° 0 mm 1 m/s 724 mmHg 71%
    17:00 +7°C° 0 mm 1 m/s 724 mmHg 73%
    18:00 +5°C° 0 mm 1 m/s 725 mmHg 76%
    19:00 +4°C° 0 mm 1 m/s 725 mmHg 78%
    20:00 +4°C° 0 mm 1 m/s 725 mmHg 78%
    21:00 +3°C° 0 mm 1 m/s 726 mmHg 79%
    22:00 +3°C° 0 mm 1 m/s 726 mmHg 79%
    23:00 +3°C° 0 mm 1 m/s 726 mmHg 79%

    27 Janvier, Dimanche

    Heure Température Précipitation Vent Pression Humidité
    00:00 +3°C° 0 mm 1 m/s 726 mmHg 80%
    01:00 +2°C° 0 mm 1 m/s 726 mmHg 80%
    02:00 +2°C° 0 mm 1 m/s 726 mmHg 80%
    03:00 +2°C° 0 mm 1 m/s 726 mmHg 81%
    04:00 +2°C° 0 mm 1 m/s 726 mmHg 82%
    05:00 +2°C° 0 mm 1 m/s 726 mmHg 81%
    06:00 +2°C° 0 mm 1 m/s 726 mmHg 80%
    07:00 +2°C° 0 mm 1 m/s 726 mmHg 79%
    08:00 +4°C° 0 mm 1 m/s 726 mmHg 77%
    09:00 +5°C° 0 mm 1 m/s 727 mmHg 74%
    10:00 +7°C° 0 mm 1 m/s 727 mmHg 72%
    11:00 +6°C° 0 mm 2 m/s 727 mmHg 73%
    12:00 +7°C° 0 mm 2 m/s 726 mmHg 74%
    13:00 +7°C° 0 mm 2 m/s 726 mmHg 75%
    14:00 +8°C° 0 mm 1 m/s 726 mmHg 76%
    15:00 +8°C° 0 mm 1 m/s 726 mmHg 76%
    16:00 +8°C° 0 mm 1 m/s 726 mmHg 77%
    17:00 +7°C° 0 mm 1 m/s 726 mmHg 78%
    18:00 +5°C° 0 mm 2 m/s 726 mmHg 79%
    19:00 +4°C° 0 mm 2 m/s 726 mmHg 79%
    20:00 +4°C° 0 mm 2 m/s 726 mmHg 79%
    21:00 +3°C° 0 mm 3 m/s 726 mmHg 80%
    22:00 +3°C° 0 mm 3 m/s 726 mmHg 80%
    23:00 +3°C° 0.2 mm 3 m/s 726 mmHg 80%
    Voir plus